{"data":{"norad_id":58478,"intl_designator":"2023-186F","name":"STARLINK-30990","alt_names":[],"object_type":"PAYLOAD","status":"ACTIVE","operator":null,"country":"US","launch_date":"2023-12-03","launch_site_code":"AFETR","launch_vehicle":null,"mission":null,"orbit_class":"UNKNOWN","rcs_meters":null,"size_class":null,"mass_kg":null,"dimensions":null,"purposes":["comms"],"wikipedia_slug":null,"has_3d_model":false,"image_url":null,"decayed_at":null,"tle_current":{"epoch":"2026-05-24T23:39:01.750752Z","epoch_age_seconds":72384,"freshness":"FRESH","line1":"1 58478U 23186F   26144.98543693  .00002096  00000+0  85658-4 0  9998","line2":"2 58478  43.0026 356.2646 0001901 261.8384  98.2252 15.27587087137564","mean_motion":15.27587087,"eccentricity":0.0001901,"inclination_deg":43.0026,"raan_deg":356.2646,"arg_perigee_deg":261.8384,"mean_anomaly_deg":98.2252,"bstar":8.5658e-5,"rev_number":13756,"period_min":94.266311377899,"perigee_km":481.72356765141,"apogee_km":484.33218253692,"semimajor_km":6861.1648750942,"source":"CELESTRAK","updated_at":"2026-05-25T13:38:18.650781Z"}}}